{"data":{"norad_id":81021,"intl_designator":"","name":"UNKNOWN","alt_names":[],"object_type":"UNKNOWN","status":"UNKNOWN","operator":null,"country":null,"launch_date":null,"launch_site_code":null,"launch_vehicle":null,"mission":null,"orbit_class":"UNKNOWN","rcs_meters":null,"size_class":null,"mass_kg":null,"dimensions":null,"purposes":[],"wikipedia_slug":null,"has_3d_model":false,"image_url":null,"decayed_at":null,"tle_current":{"epoch":"2026-05-25T01:35:00.879360Z","epoch_age_seconds":66181,"freshness":"FRESH","line1":"1 81021U          26145.06598240  .00001393  00000+0  51039-3 0  9990","line2":"2 81021  74.0402  17.4069 0025568  64.2309 296.1477 14.33578890  9359","mean_motion":14.3357889,"eccentricity":0.0025568,"inclination_deg":74.0402,"raan_deg":17.4069,"arg_perigee_deg":64.2309,"mean_anomaly_deg":296.1477,"bstar":0.00051039,"rev_number":935,"period_min":100.44790768369,"perigee_km":761.49154260651,"apogee_km":798.09433313681,"semimajor_km":7157.9299378717,"source":"CELESTRAK","updated_at":"2026-05-25T13:38:09.442389Z"}}}